International Falls, MN

10:54 PM CDT on April 24, 2018 (GMT -0500)
Falls International

Weather History for KINL - February, 2014

Change the Weather History Date:

Thursday, February 13, 2014

  Actual Average Record
Temperature  
Mean Temperature 9 °F 10 °F  
Max Temperature 11 °F 21 °F 46 °F (2011)
Min Temperature 6 °F -2 °F -39 °F (1909)
Degree Days  
Heating Degree Days 56 55  
Month to date heating degree days 916 746  
Since 1 July heating degree days 7531 6799  
Cooling Degree Days 0 0  
Month to date cooling degree days 0 0  
Year to date cooling degree days 0 0  
Moisture  
Dew Point 0 °F    
Average Humidity 76    
Maximum Humidity 83    
Minimum Humidity 69    
Precipitation  
Precipitation 0.12 in 0.02 in 0.60 in (1923)
Month to date precipitation 0.19 0.23  
Year to date precipitation 1.01 0.85  
Snow  
Snow 3.20 in 0.40 in 4.90 in (1962)
Month to date snowfall 4.8 5.0  
Since 1 July snowfall 59.0 51.0  
Snow Depth 24.00 in    
Sea Level Pressure  
Sea Level Pressure 29.63 in    
Wind  
Wind Speed 13 mph (NE)    
Max Wind Speed 21 mph    
Max Gust Speed 29 mph    
Visibility 4 miles    
Events Fog , Snow    
T = Trace of Precipitation, MM = Missing Value Source: NWS Daily Summary

Daily Weather History Graph

Daily Weather History Graph

Search for Another Location

Airport or City:

Astronomy

Feb. 13, 2014 Rise Set
Actual Time 7:24 AM CST 5:31 PM CST
Civil Twilight 6:51 AM CST 6:04 PM CST
Nautical Twilight 6:15 AM CST 6:41 PM CST
Astronomical Twilight 5:38 AM CST 7:17 PM CST
Moon 4:41 PM CST (2/13) 6:19 AM CST (2/13)
Length of Visible Light 11h 12m
Length of Day
10h 07m
Waxing Gibbous, 99% of the Moon is Illuminated
Feb 13
Waxing Gibbous
Feb 14
Full
Feb 22
Last Quarter
Mar 1
New
Mar 8
First Quarter

Hourly Weather History & Observations

Time (CST) Temp. Windchill Dew Point Humidity Pressure Visibility Wind Dir Wind Speed Gust Speed Precip Events Conditions
12:55 AM 6.1 °F -10.9 °F -2.9 °F 67% 29.75 in 10.0 mi ESE 13.8 mph - N/A   Overcast
1:55 AM 7.0 °F -9.1 °F -2.9 °F 64% 29.70 in 10.0 mi East 12.7 mph - N/A   Overcast
2:25 AM 8.1 °F -9.0 °F -2.0 °F 64% 29.58 in 10.0 mi East 15.0 mph - N/A   Overcast
2:32 AM 8.1 °F -8.4 °F -2.0 °F 64% 29.56 in 10.0 mi East 13.8 mph - N/A   Overcast
2:52 AM 8.6 °F -9.5 °F -0.4 °F 67% 29.54 in 1.8 mi East 17.3 mph 25.3 mph 0.00 in Snow Light Snow
2:55 AM 8.1 °F -9.0 °F -0.0 °F 70% 29.63 in 1.5 mi East 15.0 mph 25.3 mph 0.00 in Snow Light Snow
3:04 AM 8.1 °F -9.6 °F 1.0 °F 73% 29.53 in 1.8 mi East 16.1 mph - 0.00 in Snow Light Snow
3:14 AM 8.1 °F -9.6 °F 1.9 °F 76% 29.52 in 2.0 mi East 16.1 mph - 0.00 in Snow Light Snow
3:23 AM 8.1 °F -10.2 °F 1.9 °F 76% 29.51 in 1.2 mi East 17.3 mph 29.9 mph 0.01 in Snow Light Snow
3:43 AM 8.1 °F -7.0 °F 3.0 °F 80% 29.51 in 1.0 mi East 11.5 mph - 0.02 in Snow Light Snow
3:55 AM 8.1 °F -8.4 °F 3.0 °F 80% 29.59 in 0.8 mi East 13.8 mph - 0.02 in Snow Light Snow
4:10 AM 9.0 °F -6.6 °F 3.9 °F 80% 29.50 in 0.5 mi East 12.7 mph - 0.01 in Snow Snow
4:31 AM 9.0 °F -5.1 °F 3.9 °F 80% 29.50 in 1.0 mi East 10.4 mph - 0.02 in Snow Light Snow
4:50 AM 8.6 °F -6.3 °F 5.0 °F 85% 29.49 in 0.8 mi East 11.5 mph - 0.02 in Snow Light Snow
4:55 AM 9.0 °F -5.9 °F 5.0 °F 84% 29.58 in 1.0 mi East 11.5 mph - 0.02 in Snow Light Snow
5:46 AM 10.0 °F -5.2 °F 5.0 °F 80% 29.48 in 1.2 mi East 12.7 mph - 0.01 in Snow Light Snow
5:55 AM 10.0 °F -5.9 °F 5.0 °F 80% 29.57 in 1.2 mi East 13.8 mph - 0.01 in Snow Light Snow
6:18 AM 10.0 °F -5.2 °F 6.1 °F 84% 29.47 in 1.0 mi East 12.7 mph - 0.00 in Snow Light Snow
6:28 AM 10.9 °F -4.1 °F 6.1 °F 81% 29.48 in 0.8 mi East 12.7 mph 19.6 mph 0.00 in Snow Light Snow
6:55 AM 10.9 °F -2.6 °F 6.1 °F 81% 29.57 in 0.8 mi ENE 10.4 mph - 0.00 in Snow Light Snow
7:12 AM 10.0 °F -4.5 °F 5.0 °F 80% 29.48 in 1.0 mi ENE 11.5 mph - 0.00 in Snow Light Snow
7:28 AM 10.0 °F -5.2 °F 5.0 °F 80% 29.48 in 0.8 mi ENE 12.7 mph 21.9 mph 0.00 in Snow Light Snow
7:55 AM 9.0 °F -7.3 °F 5.0 °F 84% 29.58 in 0.5 mi ENE 13.8 mph - 0.00 in Fog , Snow Light Snow
8:10 AM 9.0 °F -7.3 °F 3.9 °F 80% 29.50 in 1.2 mi ENE 13.8 mph 21.9 mph 0.00 in Snow Light Snow
8:27 AM 9.0 °F -8.5 °F 3.9 °F 80% 29.50 in 0.8 mi ENE 16.1 mph 23.0 mph 0.00 in Snow Light Snow
8:55 AM 10.0 °F -6.5 °F 3.9 °F 76% 29.60 in 1.0 mi ENE 15.0 mph 23.0 mph 0.00 in Snow Light Snow
9:55 AM 9.0 °F -6.6 °F 3.9 °F 80% 29.62 in 1.5 mi ENE 12.7 mph 25.3 mph 0.00 in Snow Light Snow
10:52 AM 10.4 °F -6.6 °F 3.2 °F 73% 29.54 in 2.0 mi ENE 16.1 mph - 0.01 in Snow Light Snow
10:53 AM 10.0 °F -6.5 °F 3.0 °F 73% 29.63 in 2.0 mi NE 15.0 mph - 0.01 in Snow Light Snow
11:11 AM 10.0 °F -5.2 °F 3.0 °F 73% 29.55 in 3.0 mi ENE 12.7 mph 19.6 mph 0.00 in Snow Light Snow
11:18 AM 10.0 °F -1.9 °F 3.9 °F 76% 29.55 in 2.5 mi ENE 8.1 mph - 0.00 in Snow Light Snow
11:46 AM 10.0 °F -5.2 °F 3.0 °F 73% 29.55 in 3.0 mi NE 12.7 mph - 0.01 in Snow Light Snow
11:55 AM 10.0 °F -4.5 °F 3.0 °F 73% 29.65 in 1.8 mi NNE 11.5 mph - 0.01 in Snow Light Snow
12:11 PM 10.0 °F -5.9 °F 3.0 °F 73% 29.55 in 1.0 mi NE 13.8 mph - 0.01 in Snow Light Snow
12:28 PM 10.0 °F -4.5 °F 3.0 °F 73% 29.55 in 0.8 mi NNE 11.5 mph - 0.01 in Snow Light Snow
12:51 PM 10.4 °F -4.8 °F 3.2 °F 73% 29.55 in 1.2 mi NNE 12.7 mph 18.4 mph 0.01 in Snow Light Snow
12:55 PM 10.0 °F -5.2 °F 3.9 °F 76% 29.65 in 1.5 mi North 12.7 mph - 0.01 in Snow Light Snow
1:43 PM 9.0 °F -5.9 °F 1.9 °F 73% 29.57 in 2.5 mi NNE 11.5 mph 20.7 mph 0.01 in Snow Light Snow
1:55 PM 9.0 °F -7.9 °F 1.9 °F 73% 29.67 in 3.0 mi NNE 15.0 mph 21.9 mph 0.01 in Snow Light Snow
2:13 PM 10.0 °F -5.9 °F 1.9 °F 70% 29.58 in 3.0 mi NNE 13.8 mph - 0.00 in Snow Light Snow
2:55 PM 10.0 °F -3.7 °F 1.9 °F 70% 29.69 in 8.0 mi North 10.4 mph - 0.02 in   Overcast
3:55 PM 9.0 °F -7.9 °F -0.0 °F 67% 29.73 in 10.0 mi North 15.0 mph - 0.01 in   Overcast
4:55 PM 7.0 °F -7.5 °F -0.9 °F 70% 29.76 in 10.0 mi North 10.4 mph - N/A   Overcast
5:55 PM 6.1 °F -8.7 °F -2.0 °F 69% 29.80 in 10.0 mi North 10.4 mph - N/A   Overcast
6:44 PM 3.0 °F -11.5 °F -4.0 °F 73% 29.72 in 10.0 mi North 9.2 mph - N/A   Partly Cloudy
6:55 PM 3.0 °F -10.5 °F -4.0 °F 73% 29.81 in 10.0 mi North 8.1 mph - N/A   Partly Cloudy
7:55 PM 1.0 °F -14.0 °F -5.1 °F 75% 29.83 in 10.0 mi North 9.2 mph - N/A   Clear
8:55 PM -0.0 °F -11.6 °F -6.0 °F 76% 29.83 in 10.0 mi North 5.8 mph - N/A   Clear
9:51 PM -2.2 °F -12.5 °F -5.8 °F 85% 29.75 in 4.0 mi North 4.6 mph - N/A   Scattered Clouds
9:55 PM -2.0 °F -13.9 °F -7.1 °F 79% 29.84 in 4.0 mi North 5.8 mph - N/A   Haze
10:03 PM -2.0 °F -13.9 °F -7.1 °F 79% 29.75 in 6.0 mi North 5.8 mph - N/A   Haze
10:41 PM -2.0 °F -13.9 °F -7.1 °F 79% 29.75 in 3.0 mi North 5.8 mph - N/A   Haze
10:55 PM -5.1 °F -15.8 °F -9.0 °F 83% 29.85 in 2.5 mi North 4.6 mph - N/A   Mostly Cloudy
11:09 PM -4.0 °F -17.8 °F -8.0 °F 83% 29.75 in 1.8 mi North 6.9 mph - N/A   Overcast
11:19 PM -5.1 °F -17.6 °F -9.0 °F 83% 29.76 in 3.0 mi NNW 5.8 mph - N/A   Overcast
11:55 PM -4.0 °F -17.8 °F -8.0 °F 83% 29.86 in 10.0 mi North 6.9 mph - N/A   Partly Cloudy